Weather History for Reno, NV

Change the Weather History Date:

Monday, January 6, 2014

  Actual Average Record
Temperature  
Mean Temperature 30 °F 35 °F  
Max Temperature 40 °F 45 °F 66 °F (1969)
Min Temperature 19 °F 25 °F -8 °F (1890)
Degree Days  
Heating Degree Days 35 30  
Month to date heating degree days 172 182  
Since 1 July heating degree days 2406 2206  
Cooling Degree Days 0 0  
Month to date cooling degree days 0 0  
Year to date cooling degree days 0 0  
Moisture  
Dew Point 15 °F    
Average Humidity 54    
Maximum Humidity 77    
Minimum Humidity 30    
Precipitation  
Precipitation 0.00 in 0.04 in 0.83 in (1901)
Month to date precipitation 0.00 0.22  
Year to date precipitation 0.00 0.22  
Snow  
Snow 0.00 in 0.20 in 4.50 in (1974)
Month to date snowfall 0.0 1.4  
Since 1 July snowfall 4.7 9.8  
Snow Depth 0.00 in    
Sea Level Pressure  
Sea Level Pressure 30.40 in    
Wind  
Wind Speed 1 mph (WSW)    
Max Wind Speed 8 mph    
Max Gust Speed 11 mph    
Visibility 10 miles    
Events      
T = Trace of Precipitation, MM = Missing Value Source: NWS Daily Summary

Daily Weather History Graph

Daily Weather History Graph

Search for Another Location

Airport:

Trip Planner

Search our weather history database for the weather conditions in past years. The results will help you decide how hot, cold, wet, or windy it might be!

Date:

Astronomy

Jan. 06, 2014 Rise Set
Actual Time 7:19 AM PST 4:50 PM PST
Civil Twilight 6:49 AM PST 5:20 PM PST
Nautical Twilight 6:16 AM PST 5:54 PM PST
Astronomical Twilight 5:43 AM PST 6:26 PM PST
Moon 10:39 AM PST (1/6) 11:27 PM PST (1/6)
Length of Visible Light 10h 30m
Length of Day
9h 30m
Waxing Crescent, 36% of the Moon is Illuminated
Jan 6
Waxing Crescent
Jan 7
First Quarter
Jan 15
Full
Jan 23
Last Quarter
Jan 30
New

Hourly Weather History & Observations

Time (PST) Temp. Windchill Dew Point Humidity Pressure Visibility Wind Dir Wind Speed Gust Speed Precip Events Conditions
12:55 AM 25.0 °F - 14.0 °F 63% 30.45 in 10.0 mi Calm Calm - N/A   Clear
1:55 AM 23.0 °F - 15.1 °F 72% 30.46 in 10.0 mi Calm Calm - N/A   Partly Cloudy
2:55 AM 21.9 °F - 14.0 °F 72% 30.46 in 10.0 mi Calm Calm - N/A   Partly Cloudy
3:55 AM 23.0 °F 18.4 °F 12.9 °F 65% 30.46 in 10.0 mi WNW 3.5 mph - N/A   Clear
4:55 AM 19.9 °F - 14.0 °F 78% 30.48 in 10.0 mi Calm Calm - N/A   Clear
5:55 AM 19.9 °F 14.9 °F 12.9 °F 74% 30.48 in 10.0 mi SW 3.5 mph - N/A   Clear
6:55 AM 19.9 °F - 12.9 °F 74% 30.49 in 10.0 mi Calm Calm - N/A   Scattered Clouds
7:55 AM 21.0 °F - 14.0 °F 74% 30.50 in 10.0 mi Calm Calm - N/A   Mostly Cloudy
8:55 AM 25.0 °F - 14.0 °F 63% 30.51 in 10.0 mi Calm Calm - N/A   Overcast
9:55 AM 28.9 °F - 14.0 °F 54% 30.49 in 10.0 mi Calm Calm - N/A   Overcast
10:55 AM 30.9 °F 27.5 °F 12.9 °F 47% 30.46 in 10.0 mi Variable 3.5 mph - N/A   Mostly Cloudy
11:55 AM 35.1 °F - 12.9 °F 40% 30.40 in 10.0 mi Calm Calm - N/A   Overcast
12:55 PM 37.0 °F - 12.0 °F 36% 30.38 in 10.0 mi Calm Calm - N/A   Overcast
1:55 PM 39.0 °F - 10.9 °F 32% 30.35 in 10.0 mi Calm Calm - N/A   Overcast
2:55 PM 39.9 °F - 12.0 °F 32% 30.34 in 10.0 mi Calm Calm - N/A   Overcast
3:55 PM 39.9 °F - 12.9 °F 33% 30.32 in 10.0 mi Calm Calm - N/A   Overcast
4:55 PM 37.9 °F - 14.0 °F 38% 30.33 in 10.0 mi Calm Calm - N/A   Mostly Cloudy
5:55 PM 37.0 °F - 15.1 °F 41% 30.33 in 10.0 mi Calm Calm - N/A   Mostly Cloudy
6:55 PM 36.0 °F - 16.0 °F 44% 30.33 in 10.0 mi Calm Calm - N/A   Mostly Cloudy
7:55 PM 36.0 °F 31.1 °F 17.1 °F 46% 30.33 in 10.0 mi West 5.8 mph - N/A   Mostly Cloudy
8:55 PM 35.1 °F - 18.0 °F 50% 30.32 in 10.0 mi Calm Calm - N/A   Mostly Cloudy
9:55 PM 34.0 °F - 18.0 °F 52% 30.30 in 10.0 mi Calm Calm - N/A   Mostly Cloudy
10:55 PM 33.1 °F - 19.0 °F 56% 30.29 in 10.0 mi Calm Calm - N/A   Mostly Cloudy
11:55 PM 32.0 °F 27.5 °F 21.0 °F 64% 30.26 in 10.0 mi South 4.6 mph - N/A   Mostly Cloudy